Tracking 35237 objects as of 6-Sep-2026
HD Live streaming from Space Station
objects crossing your sky now

STARLINK-30090


STARLINK-30090 is no longer on orbit
STARLINK-30090 is classified as:


NORAD ID: 56293
Int'l Code: 2023-056H
Launch date: April 19, 2023
Source: United States (US)
Launch site: AIR FORCE EASTERN TEST RANGE (AFETR)
Decay date: 2026-04-08
Your satellite tracking list
Your tracking list is empty




NASA's NSSDC Master Catalog

Two Line Element Set (TLE):
1 56293U 23056H   26097.54265156  .01437191  14490-2  13212-2 0  9996
2 56293  42.9966  36.1718 0002902 241.3708 118.6883 16.11824915164562
Source of the keplerian elements: AFSPC